Regional Weather Roundup
Issued by NWS Green Bay, WI

Home | Current Version | Previous Version | Graphics & Text | Print | Product List | Glossary Off
Versions: 1 2 3 4 5 6 7 8 9 10 11 12 13 14 15 16 17 18 19 20 21 22 23 24 25 26 27 28 29 30 31 32 33 34 35 36 37 38 39 40 41 42 43 44 45 46 47 48 49 50

000
ASUS43 KGRB 052111
RWRGRB

NORTH-CENTRAL AND NORTHEAST WISCONSIN REGIONAL WEATHER ROUNDUP
NATIONAL WEATHER SERVICE GREEN BAY WI
300 PM CST MON DEC 05 2016

WIZ005-009-010>012-018-019-052200-
NORTH CENTRAL WISCONSIN

CITY           SKY/WX    TMP DP  RH WIND       PRES   REMARKS
IRONWOOD       CLOUDY    38  30  73 SE7       29.79S
MANITOWISH WTR CLEAR     36  31  82 SE7       29.79R
ARBOR VITAE    PTCLDY    38  32  77 SE3       29.79S
EAGLE RIVER    CLEAR     38  28  65 SE3       29.81R
LAND O LAKES   CLEAR     38  30  70 CALM      29.82S
RHINELANDER    PTCLDY    37  29  72 SE5       29.81S
PHILLIPS       CLOUDY    35  31  84 S8        29.80R
ANTIGO         CLOUDY    33  31  91 S10       29.86R
TOMAHAWK       CLOUDY    33  29  88 SE3       29.82R
MERRILL        CLOUDY    34  32  90 S3        29.85R
$$

WIZ013-073-052200-
NORTHEAST WISCONSIN

CITY           SKY/WX    TMP DP  RH WIND       PRES   REMARKS
IRON MOUNTAIN  CLEAR     39  30  70 S7        29.84S
MARINETTE      PTCLDY    35  30  82 SW12      29.93R
OCONTO         CLOUDY    35  31  84 S5        29.92R
$$

WIZ017-030-035>037-045-052200-
CENTRAL WISCONSIN

CITY           SKY/WX    TMP DP  RH WIND       PRES   REMARKS
MEDFORD        CLOUDY    32  30  94 SE7       29.82R FOG
WAUSAU         CLOUDY    33  30  88 SE8       29.85R
MOSINEE        CLOUDY    32  32 100 SE9       29.87R FOG
MARSHFIELD     CLOUDY    33  31  92 S12       29.84R FOG
WISC RAPIDS    CLOUDY    34  33  96 S8        29.88R FOG
STEVENS POINT  CLOUDY    32  32  99 S6        29.88R FOG
WAUPACA        CLOUDY    35  32  88 S8        29.91R FOG
SHAWANO        CLOUDY    35  32  88 S3        29.91R
CLINTONVILLE   CLOUDY    32  32 100 S10       29.91R FOG
WAUTOMA        CLOUDY    34  32  92 S9        29.92R
$$

WIZ038-039-048-051-052200-
FOX VALLEY

CITY           SKY/WX    TMP DP  RH WIND       PRES   REMARKS
NWS GREEN BAY  CLOUDY    36  33  89 S10       29.92F
APPLETON       CLOUDY    34  34 100 S8        29.90S FOG
OSHKOSH        CLOUDY    33  31  92 S10       29.93R FOG
FOND DU LAC    CLOUDY    33  29  85 S16       29.94R
$$

WIZ022-050-052-052200-
EAST CENTRAL WISCONSIN

CITY           SKY/WX    TMP DP  RH WIND       PRES   REMARKS
EPHRAIM        FAIR      36  30  79 S7        29.91R
WASHINGTON ISL FAIR      37  31  78 SW9       29.92R
STURGEON BAY   MOCLDY    35  30  82 S8        29.93R
MANITOWOC      CLOUDY    34  31  88 S8        29.95F
SHEBOYGAN      CLOUDY    33  31  92 S12       29.94F
$$

LMZ563-521-522-541>543-052200-
LAKESHORE

STATION/POSITION TIME  TEMP    WIND        PRES    VSBY  WAVE
                       AIR SEA DIR/SP/G                  HT/PER
                 (UTC) (F)     (DEG/KT/KT) (MB)    (MI)  (FT/S)
SHEBOYGAN LKSHOR 2100   34     190/ 14/ 15 1014.6R
KEWAUNEE LKSHORE 2042   36     200/ 10/ 11 1013.2S
ALGOMA MARINA    2036          230/ 15/ 18   N/A
NORTHPORT PIER   2040   40     200/  3/ 10 1013.2R
SISTER BAY LKSHO 2038   45     280/  9/ 10   N/A
CHAMBERS ISLAND  2040   37     190/ 10/ 14 1012.9R
MENOMINEE LKSHOR 2042   36     190/  9/ 17 1012.5R
$$



USA.gov is the U.S. government's official web portal to all federal, state and local government web resources and services.